FW7922 Weather Reports


time (UTC)temp
C
wind
direction
speed
KPH
gust
KPH
rain 1hr
cm
rain 24hr
cm
rain mn
cm
humidity
%
barometer
mb
20260507143019 13 1 3.2 9.7 0.00 0.36 0.00 60 1007.8
20260507142019 13 330 1.6 8.0 0.00 0.36 0.00 64 1007.7
20260507141017 13 349 3.2 8.0 0.00 0.36 0.00 63 1007.7
20260507140017 12 351 1.6 6.4 0.00 0.36 0.00 66 1007.6
20260507135017 12 2 1.6 6.4 0.00 0.36 0.00 70 1007.6
20260507134017 12 9 1.6 4.8 0.00 0.36 0.00 70 1007.5
20260507133018 12 360 3.2 6.4 0.00 0.36 0.00 70 1007.5
20260507132018 12 350 1.6 6.4 0.00 0.36 0.00 72 1007.7
20260507131018 11 3 1.6 6.4 0.00 0.36 0.00 73 1007.8
20260507130018 11 350 3.2 8.0 0.00 0.36 0.00 74 1007.9
20260507125038 11 18 1.6 6.4 0.00 0.36 0.00 76 1007.9
20260507124021 11 0 1.6 6.4 0.00 0.36 0.00 76 1007.9
20260507123018 11 357 1.6 6.4 0.00 0.36 0.00 77 1007.9
20260507122027 10 305 0.0 3.2 0.00 0.36 0.00 81 1008.1
20260507121029 10 342 1.6 4.8 0.00 0.36 0.00 83 1008.0
20260507120108 10 347 1.6 4.8 0.00 0.36 0.00 83 1008.1
20260507115029 10 354 1.6 3.2 0.00 0.36 0.00 86 1008.0
20260507114028 9 351 1.6 4.8 0.00 0.36 0.00 88 1007.9
20260507113049 9 9 1.6 3.2 0.00 0.36 0.00 88 1007.8
20260507112028 8 46 0.0 1.6 0.00 0.36 0.00 89 1007.9
20260507111028 8 359 0.0 3.2 0.00 0.36 0.00 90 1007.8
20260507110029 8 356 0.0 0.0 0.00 0.36 0.00 90 1007.8
20260507105049 8 0.0 0.0 0.00 0.36 0.00 90 1007.7
20260507104029 8 140 0.0 1.6 0.00 0.36 0.00 90 1007.7
20260507103033 8 355 0.0 1.6 0.00 0.36 0.00 90 1007.4
20260507102031 8 1 0.0 3.2 0.00 0.36 0.00 91 1007.2
20260507101030 8 7 0.0 1.6 0.00 0.36 0.00 91 1007.3
20260507100030 8 355 1.6 4.8 0.00 0.36 0.00 91 1007.1
20260507095031 8 4 0.0 3.2 0.00 0.36 0.00 92 1007.2
20260507094031 8 11 0.0 3.2 0.00 0.36 0.00 92 1007.2
20260507093030 8 5 0.0 3.2 0.00 0.36 0.00 93 1007.6
20260507092032 8 3 1.6 3.2 0.00 0.36 0.00 93 1007.4
20260507091030 8 325 0.0 1.6 0.00 0.36 0.00 93 1007.7
20260507090031 8 359 1.6 3.2 0.00 0.36 0.00 92 1007.7
20260507085031 8 328 0.0 1.6 0.00 0.36 0.00 91 1008.0
20260507084031 8 352 1.6 3.2 0.00 0.36 0.00 91 1007.6
20260507083031 8 353 1.6 4.8 0.00 0.36 0.00 91 1007.7
20260507082017 8 354 0.0 3.2 0.00 0.36 0.00 91 1007.4
20260507081017 8 359 0.0 3.2 0.00 0.36 0.00 90 1007.5
20260507080031 8 0.0 0.0 0.00 0.36 0.00 89 1007.5
20260507075032 9 4 1.6 3.2 0.00 0.36 0.00 89 1007.2
20260507074032 9 11 1.6 6.4 0.00 0.36 0.00 89 1007.3
20260507073053 9 359 1.6 4.8 0.00 0.36 0.00 88 1007.4
20260507072032 9 357 0.0 3.2 0.00 0.36 0.00 88 1007.3
20260507071018 9 358 1.6 4.8 0.00 0.36 0.00 88 1006.9
20260507070017 10 335 0.0 1.6 0.00 0.36 0.00 90 1006.8
20260507065018 10 16 0.0 3.2 0.00 0.36 0.00 91 1006.8
20260507064019 10 4 0.0 1.6 0.00 0.36 0.00 90 1006.7
20260507063019 10 26 0.0 1.6 0.00 0.36 0.00 90 1006.7
20260507062019 10 10 1.6 3.2 0.00 0.36 0.00 91 1007.0
20260507061019 10 229 0.0 1.6 0.00 0.36 0.00 92 1006.8
20260507060037 10 17 0.0 0.0 0.00 0.36 0.00 92 1006.9
20260507055017 10 346 0.0 3.2 0.00 0.36 0.00 91 1007.0
20260507054018 10 351 0.0 1.6 0.00 0.36 0.00 91 1007.2
20260507053019 10 344 1.6 4.8 0.00 0.36 0.00 91 1007.4
20260507052019 10 71 0.0 1.6 0.00 0.36 0.00 93 1007.6
20260507051019 10 126 0.0 1.6 0.00 0.36 0.00 94 1007.2
20260507050018 11 93 0.0 3.2 0.00 0.36 0.00 93 1007.5
20260507045018 11 43 0.0 1.6 0.00 0.36 0.00 93 1007.3
20260507044039 11 354 0.0 3.2 0.00 0.36 0.00 93 1007.1
20260507043019 11 339 1.6 3.2 0.03 0.36 0.00 94 1007.0
20260507042019 12 3 1.6 4.8 0.03 0.36 0.00 98 1007.0
20260507041019 12 0.0 0.0 0.03 0.36 0.00 98 1007.0
20260507040019 12 0.0 0.0 0.03 0.36 0.00 97 1007.1
20260507035019 12 0.0 0.0 0.03 0.36 0.36 97 1007.1
20260507034040 12 0.0 0.0 0.03 0.36 0.36 96 1006.8
20260507033020 12 19 1.6 3.2 0.00 0.33 0.33 94 1007.0
20260507032020 13 358 0.0 1.6 0.00 0.33 0.33 94 1006.7
20260507031040 13 351 0.0 1.6 0.00 0.33 0.33 96 1006.5
20260507030020 13 143 0.0 3.2 0.00 0.33 0.33 97 1006.2
20260507025021 13 0.0 0.0 0.00 0.33 0.33 97 1006.0
20260507024021 13 1 1.6 4.8 0.00 0.33 0.33 96 1005.9
20260507023101 14 347 3.2 8.0 0.00 0.33 0.33 98 1006.1
20260507022021 15 341 1.6 4.8 0.00 0.33 0.33 100 1006.0
20260507021021 15 148 0.0 1.6 0.00 0.33 0.33 99 1005.9
20260507020022 15 0.0 0.0 0.00 0.33 0.33 99 1005.6
20260507015022 15 139 0.0 1.6 0.00 0.33 0.33 99 1005.4
20260507014021 14 0.0 0.0 0.00 0.33 0.33 99 1005.6
20260507013019 14 131 0.0 0.0 0.00 0.33 0.33 99 1005.5
20260507012019 14 135 0.0 3.2 0.00 0.33 0.33 99 1005.5
20260507011020 14 0.0 0.0 0.00 0.33 0.33 99 1005.6
20260507010020 14 132 0.0 1.6 0.00 0.33 0.33 99 1005.6
20260507005020 14 148 0.0 3.2 0.00 0.33 0.33 99 1005.5
20260507004018 14 178 0.0 6.4 0.00 0.33 0.33 99 1005.5
20260507003017 14 138 0.0 1.6 0.00 0.33 0.33 99 1005.4
20260507002018 14 144 0.0 3.2 0.00 0.33 0.33 99 1005.3
20260507001019 14 336 0.0 6.4 0.00 0.33 0.33 99 1005.3
20260507000039 14 123 0.0 1.6 0.00 0.33 0.33 100 1005.2
20260506235018 14 122 0.0 1.6 0.03 0.33 0.33 100 1005.2
20260506234018 14 132 0.0 3.2 0.03 0.33 0.33 100 1005.1
20260506233039 14 141 1.6 3.2 0.05 0.33 0.33 100 1005.1
20260506232041 14 0.0 0.0 0.05 0.33 0.33 100 1005.1
20260506231019 14 121 1.6 3.2 0.08 0.33 0.33 100 1005.1
20260506230019 14 122 0.0 1.6 0.10 0.33 0.33 100 1005.0
20260506225019 14 0.0 0.0 0.10 0.30 0.30 99 1005.1
20260506224057 14 106 0.0 1.6 0.13 0.30 0.30 99 1005.2
20260506223016 15 116 0.0 1.6 0.13 0.28 0.28 99 1005.2
20260506222019 15 115 0.0 1.6 0.13 0.28 0.28 99 1005.2
20260506221020 15 80 0.0 3.2 0.10 0.25 0.25 99 1005.3
20260506220020 15 169 0.0 3.2 0.08 0.23 0.23 98 1005.5
20260506215020 15 135 0.0 3.2 0.08 0.20 0.20 98 1005.5
20260506214017 15 133 1.6 4.8 0.05 0.18 0.18 98 1005.5
20260506213017 15 154 0.0 4.8 0.03 0.15 0.15 97 1005.5
20260506212021 15 120 0.0 3.2 0.00 0.15 0.15 97 1005.5
20260506211022 15 143 1.6 4.8 0.03 0.15 0.15 96 1005.7
20260506210021 15 152 0.0 4.8 0.03 0.15 0.15 97 1005.8
20260506205039 15 156 0.0 4.8 0.03 0.15 0.15 96 1005.8
20260506204018 15 145 1.6 3.2 0.03 0.13 0.13 96 1005.9
20260506203018 15 152 0.0 3.2 0.03 0.13 0.13 96 1006.0
20260506202019 15 153 1.6 6.4 0.03 0.13 0.13 96 1006.0
20260506201019 15 168 1.6 6.4 0.03 0.13 0.13 95 1006.1
20260506200039 16 155 0.0 4.8 0.03 0.13 0.13 95 1006.0
20260506195039 16 131 0.0 4.8 0.03 0.13 0.13 94 1006.2
20260506194019 16 157 0.0 3.2 0.03 0.13 0.13 94 1006.3
20260506193040 16 355 0.0 4.8 0.03 0.10 0.10 93 1006.2
20260506192020 16 151 0.0 4.8 0.05 0.10 0.10 94 1006.1
20260506191017 16 136 0.0 4.8 0.05 0.10 0.10 95 1006.2
20260506190018 16 0.0 0.0 0.08 0.10 0.10 94 1006.1
20260506185020 16 131 0.0 3.2 0.10 0.10 0.10 93 1006.2
20260506184020 16 165 1.6 4.8 0.10 0.10 0.10 92 1006.3
20260506183020 17 164 0.0 3.2 0.08 0.08 0.08 90 1006.5
20260506182019 17 0 0.0 3.2 0.08 0.08 0.08 89 1006.6
20260506181038 18 350 0.0 3.2 0.05 0.05 0.05 86 1006.8
20260506175018 20 345 1.6 8.0 0.00 0.00 0.00 73 1006.7
20260506174018 21 343 1.6 4.8 0.00 0.00 0.00 69 1006.5
20260506173018 21 341 0.0 8.0 0.00 0.00 0.00 65 1006.4
20260506172018 21 299 3.2 8.0 0.00 0.00 0.00 64 1006.3
20260506171019 21 241 1.6 6.4 0.00 0.00 0.00 63 1006.4
20260506170020 22 183 1.6 6.4 0.00 0.00 0.00 61 1006.4
20260506165019 22 176 1.6 8.0 0.00 0.00 0.00 61 1006.5
20260506164019 21 9 1.6 6.4 0.00 0.00 0.00 62 1006.6
20260506163019 21 325 1.6 6.4 0.00 0.00 0.00 63 1006.8
20260506162020 21 168 1.6 8.0 0.00 0.00 0.00 63 1007.1
20260506161020 21 52 1.6 9.7 0.00 0.00 0.00 63 1007.2
20260506160100 21 349 0.0 6.4 0.00 0.00 0.00 64 1007.4
20260506155017 21 345 1.6 12.9 0.00 0.00 0.00 64 1007.6
20260506154037 21 272 1.6 6.4 0.00 0.00 0.00 64 1007.6
20260506153017 21 330 1.6 6.4 0.00 0.00 0.00 65 1007.7
20260506152018 20 160 1.6 4.8 0.00 0.00 0.00 67 1007.9
20260506151022 20 178 1.6 4.8 0.00 0.00 0.00 67 1008.1
20260506150021 20 145 1.6 8.0 0.00 0.00 0.00 68 1008.3
20260506145018 20 97 0.0 4.8 0.00 0.00 0.00 68 1008.1
20260506144018 20 347 1.6 4.8 0.00 0.00 0.00 69 1008.4